Weather History for PHNL - March, 2013

Change the Weather History Date:

Saturday, March 16, 2013

  Actual Average Record
Temperature  
Mean Temperature 73 °F 74 °F  
Max Temperature 80 °F 81 °F 88 °F (1987)
Min Temperature 66 °F 68 °F 57 °F (1958)
Degree Days  
Heating Degree Days 0 0  
Month to date heating degree days 0 0  
Since 1 July heating degree days 0 0  
Cooling Degree Days 8 9  
Month to date cooling degree days 134 143  
Year to date cooling degree days 632 625  
Growing Degree Days 24 (Base 50)    
Moisture  
Dew Point 56 °F    
Average Humidity 59    
Maximum Humidity 78    
Minimum Humidity 39    
Precipitation  
Precipitation 0.00 in 0.07 in 2.41 in (1969)
Month to date precipitation 2.19 1.12  
Year to date precipitation 5.26 5.42  
Snow  
Snow 0.00 in - - ()
Month to date snowfall 0.0  
Since 1 July snowfall 0.0  
Snow Depth 0.00 in    
Sea Level Pressure  
Sea Level Pressure 29.97 in    
Wind  
Wind Speed 11 mph (NNW)    
Max Wind Speed 22 mph    
Max Gust Speed 29 mph    
Visibility 10 miles    
Events      
T = Trace of Precipitation, MM = Missing Value Source: NWS Daily Summary

Daily Weather History Graph

Daily Weather History Graph

Search for Another Location

Airport or City:

Trip Planner

Search our weather history database for the weather conditions in past years. The results will help you decide how hot, cold, wet, or windy it might be!

Date:

Astronomy

Mar. 16, 2013 Rise Set
Actual Time 6:38 AM HST 6:41 PM HST
Civil Twilight 6:16 AM HST 7:03 PM HST
Nautical Twilight 5:51 AM HST 7:29 PM HST
Astronomical Twilight 5:25 AM HST 7:55 PM HST
Moon 9:54 AM HST (3/16) 11:20 PM HST (3/16)
Length of Visible Light 12h 47m
Length of Day
12h 02m
Waxing Crescent, 25% of the Moon is Illuminated
Mar 16
Waxing Crescent
Mar 19
First Quarter
Mar 26
Full
Apr 2
Last Quarter
Apr 9
New

Hourly Weather History & Observations

Time (HST) Temp. Dew Point Humidity Pressure Visibility Wind Dir Wind Speed Gust Speed Precip Events Conditions
12:53 AM 69.1 °F 61.0 °F 75% 29.96 in 10.0 mi North 9.2 mph - N/A   Mostly Cloudy
1:53 AM 69.1 °F 60.1 °F 73% 29.94 in 10.0 mi NNW 12.7 mph - N/A   Partly Cloudy
2:53 AM 69.1 °F 57.9 °F 68% 29.93 in 10.0 mi North 9.2 mph - N/A   Overcast
3:53 AM 68.0 °F 59.0 °F 73% 29.93 in 10.0 mi North 6.9 mph - N/A   Partly Cloudy
4:53 AM 68.0 °F 59.0 °F 73% 29.93 in 10.0 mi NNW 8.1 mph - N/A   Scattered Clouds
5:53 AM 68.0 °F 57.0 °F 68% 29.95 in 10.0 mi NNW 8.1 mph - N/A   Scattered Clouds
6:53 AM 68.0 °F 55.0 °F 63% 29.98 in 10.0 mi NNW 8.1 mph - N/A   Scattered Clouds
7:53 AM 68.0 °F 55.0 °F 63% 29.99 in 10.0 mi NNW 13.8 mph - N/A   Scattered Clouds
8:53 AM 71.1 °F 54.0 °F 55% 30.00 in 10.0 mi NNW 9.2 mph 17.3 mph N/A   Scattered Clouds
9:53 AM 73.9 °F 54.0 °F 50% 30.01 in 10.0 mi NNW 19.6 mph - N/A   Partly Cloudy
10:53 AM 75.9 °F 55.0 °F 48% 30.00 in 10.0 mi North 15.0 mph - N/A   Scattered Clouds
11:53 AM 75.9 °F 53.1 °F 45% 29.99 in 10.0 mi NNW 18.4 mph 24.2 mph N/A   Scattered Clouds
12:53 PM 78.1 °F 54.0 °F 43% 29.96 in 10.0 mi NNW 20.7 mph 27.6 mph N/A   Scattered Clouds
1:53 PM 79.0 °F 52.0 °F 39% 29.94 in 10.0 mi NNW 13.8 mph - N/A   Scattered Clouds
2:53 PM 78.1 °F 54.0 °F 43% 29.92 in 10.0 mi NNW 19.6 mph 27.6 mph N/A   Scattered Clouds
3:53 PM 77.0 °F 51.1 °F 40% 29.93 in 10.0 mi NNW 17.3 mph 26.5 mph N/A   Scattered Clouds
4:53 PM 75.0 °F 51.1 °F 43% 29.94 in 10.0 mi North 16.1 mph - N/A   Scattered Clouds
5:53 PM 73.0 °F 53.1 °F 49% 29.94 in 10.0 mi NNW 13.8 mph - N/A   Scattered Clouds
6:53 PM 71.1 °F 55.0 °F 57% 29.97 in 10.0 mi NNW 11.5 mph - N/A   Partly Cloudy
7:53 PM 70.0 °F 55.0 °F 59% 29.99 in 10.0 mi North 4.6 mph - N/A   Partly Cloudy
8:53 PM 69.1 °F 55.9 °F 63% 30.02 in 10.0 mi North 3.5 mph - N/A   Clear
9:53 PM 68.0 °F 55.9 °F 65% 30.02 in 10.0 mi North 3.5 mph - N/A   Clear
10:53 PM 68.0 °F 57.0 °F 68% 30.02 in 10.0 mi Calm Calm - N/A   Clear
11:53 PM 66.0 °F 57.9 °F 75% 30.01 in 10.0 mi NNW 3.5 mph - N/A   Partly Cloudy